QPF
0.00 0.00 0.00 0.00 0.00 0.00 0.00 0.00 0.01 0.01 0.01 0.00 0.03 0.12 0.12 0.12 0.09 0.07 0.04 0.02 0.00 0.00
0.00 0.00 0.00 0.00 0.00 0.00 0.00 0.00 0.02 0.04 0.00 0.04 0.13 0.11 0.09 0.11 0.13 0.13 0.07 0.01 0.00 0.00
0.00 0.00 0.00 0.00 0.00 0.00 0.00 0.00 0.03 0.06 0.00 0.03 0.12 0.12 0.09 0.06 0.05 0.04 0.04 0.02 0.00 0.00
0.00 0.00 0.00 0.00 0.00 0.00 0.01 0.01 0.03 0.03 0.00 0.01 0.04 0.11 0.10 0.06 0.03 0.01 0.01 0.00 0.00 0.00
0.00 0.00 0.00 0.00 0.01 0.01 0.01 0.01 0.01 0.00 0.00 0.00 0.02 0.07 0.04 0.03 0.02 0.02 0.04 0.05 0.05 0.04
0.00 0.00 0.00 0.00 0.01 0.02 0.02 0.02 0.02 0.01 0.02 0.01 0.02 0.03 0.02 0.01 0.02 0.06 0.08 0.10 0.09 0.07
0.01 0.01 0.01 0.02 0.03 0.02 0.02 0.02 0.01 0.03 0.05 0.04 0.03 0.02 0.03 0.02 0.01 0.02 0.03 0.04 0.03 0.02
0.01 0.01 0.02 0.03 0.03 0.03 0.03 0.05 0.05 0.04 0.03 0.06 0.06 0.07 0.06 0.03 0.02 0.01 0.00 0.00 0.01 0.02
0.01 0.02 0.02 0.03 0.03 0.05 0.06 0.06 0.04 0.05 0.10 0.10 0.08 0.06 0.03 0.02 0.02 0.01 0.01 0.01 0.01 0.01
0.00 0.03 0.06 0.07 0.08 0.09 0.08 0.07 0.11 0.13 0.11 0.09 0.07 0.04 0.01 0.01 0.00 0.02 0.03 0.03 0.04 0.03
0.01 0.01 0.06 0.11 0.10 0.07 0.05 0.05 0.07 0.08 0.06 0.04 0.03 0.02 0.01 0.00 0.00 0.02 0.02 0.03 0.04 0.03
0.01 0.02 0.02 0.04 0.06 0.05 0.04 0.03 0.01 0.01 0.01 0.01 0.01 0.01 0.00 0.01 0.01 0.01 0.02 0.01 0.01 0.01
0.01 0.04 0.05 0.05 0.05 0.05 0.04 0.04 0.03 0.02 0.01 0.02 0.02 0.03 0.02 0.02 0.01 0.02 0.04 0.02 0.02 0.04
0.00 0.00 0.02 0.04 0.08 0.13 0.18 0.15 0.09 0.08 0.08 0.05 0.05 0.08 0.08 0.08 0.10 0.12 0.12 0.04 0.03 0.02
MSLP
1004.73 1004.53 1004.32 1004.45 1004.37 1004.51 1004.62 1004.99 1006.05 1006.74 1007.43 1007.91 1008.84 1010.05 1011.08 1012.34 1013.07 1014.40 1014.55 1015.45 1016.15 1016.26
1003.80 1003.55 1003.09 1003.03 1003.33 1003.38 1003.78 1004.23 1005.05 1005.68 1006.54 1007.28 1008.00 1009.03 1009.80 1010.90 1011.59 1013.38 1014.22 1014.61 1015.57 1016.22
1003.14 1002.50 1002.12 1002.28 1001.96 1002.37 1002.93 1003.57 1004.41 1004.91 1005.79 1006.63 1007.41 1008.45 1009.36 1010.73 1011.78 1012.71 1014.07 1015.39 1015.58 1016.58
1002.48 1001.74 1001.36 1001.30 1001.33 1001.48 1002.12 1002.54 1003.75 1004.26 1005.19 1005.96 1006.81 1008.04 1009.18 1010.38 1011.60 1012.85 1014.08 1015.24 1016.01 1017.16
1001.43 1000.78 1000.59 1000.54 1000.64 1000.88 1001.37 1002.21 1003.04 1003.88 1004.66 1005.47 1006.45 1007.40 1008.52 1009.64 1010.93 1012.36 1013.68 1014.70 1015.40 1016.88
1000.82 1000.23 999.98 999.76 999.83 1000.45 1001.31 1002.02 1002.79 1003.34 1003.89 1004.66 1005.86 1006.87 1008.11 1009.12 1010.22 1011.89 1013.01 1014.14 1015.16 1016.28
1000.44 999.86 999.46 999.39 999.55 1000.22 1000.96 1001.52 1002.11 1002.81 1003.61 1004.35 1005.50 1006.48 1007.59 1009.21 1009.81 1011.56 1012.85 1013.77 1014.52 1015.67
1000.73 999.92 999.45 999.12 999.40 999.67 1000.19 1000.97 1001.68 1002.35 1003.47 1004.16 1005.18 1006.17 1007.23 1008.56 1009.26 1010.46 1012.48 1013.73 1014.57 1015.40
1001.04 1000.35 1000.00 999.87 999.22 999.86 1000.15 1000.85 1001.60 1002.47 1003.09 1003.81 1004.85 1006.02 1006.87 1007.63 1009.21 1010.48 1011.85 1013.46 1015.12 1016.06
1000.95 1000.62 1000.24 1000.43 1000.36 1000.05 1000.51 1001.05 1001.51 1002.67 1003.17 1003.72 1004.68 1005.92 1006.87 1007.22 1009.23 1010.50 1011.84 1013.28 1014.41 1015.61
1000.86 1000.44 1000.42 1000.37 1000.49 1000.61 1000.93 1001.29 1001.70 1002.46 1003.19 1003.74 1004.72 1005.56 1006.47 1007.04 1008.95 1010.50 1011.73 1012.81 1013.98 1015.34
1000.75 1000.19 1000.19 999.97 1000.27 1000.25 1000.92 1001.53 1001.97 1002.35 1003.22 1004.00 1005.08 1005.71 1006.27 1006.92 1008.90 1010.57 1012.05 1013.00 1013.96 1015.24
1000.30 999.82 999.46 999.45 999.63 999.20 1000.06 1001.15 1001.79 1002.28 1003.02 1003.72 1004.97 1005.74 1005.91 1007.02 1008.90 1010.55 1012.06 1013.38 1014.51 1015.56
999.63 999.21 998.37 998.39 998.64 998.36 999.50 1000.16 1001.98 1002.29 1002.93 1003.79 1004.49 1005.66 1006.31 1007.24 1008.06 1009.56 1011.07 1013.42 1014.65 1015.55
Thickness
5728 5732 5736 5737 5740 5738 5737 5734 5724 5717 5708 5705 5695 5682 5670 5657 5648 5633 5632 5625 5619 5618
5718 5724 5733 5736 5736 5736 5734 5731 5723 5715 5705 5699 5693 5682 5672 5661 5652 5631 5624 5623 5614 5608
5708 5716 5723 5724 5733 5732 5728 5723 5716 5710 5698 5693 5688 5677 5666 5653 5642 5631 5619 5609 5605 5595
5695 5704 5714 5716 5720 5723 5720 5718 5709 5703 5688 5687 5681 5671 5658 5645 5632 5620 5608 5598 5590 5578
5688 5694 5703 5706 5709 5713 5711 5707 5701 5689 5678 5678 5671 5664 5652 5640 5627 5613 5601 5591 5582 5568
5675 5682 5691 5697 5698 5699 5697 5692 5686 5677 5672 5672 5663 5656 5644 5633 5622 5605 5596 5585 5574 5562
5661 5669 5681 5685 5685 5683 5682 5680 5676 5668 5663 5661 5652 5647 5636 5620 5614 5597 5585 5576 5570 5558
5640 5650 5662 5669 5671 5672 5671 5669 5664 5659 5651 5650 5642 5636 5624 5613 5606 5594 5576 5566 5559 5551
5621 5629 5637 5646 5657 5654 5655 5651 5648 5644 5643 5638 5631 5621 5614 5608 5593 5581 5569 5555 5541 5533
5605 5611 5618 5624 5628 5636 5635 5635 5636 5629 5627 5625 5617 5605 5600 5599 5579 5569 5557 5544 5535 5526
5591 5597 5603 5608 5612 5615 5616 5617 5617 5614 5612 5610 5600 5594 5589 5586 5569 5556 5546 5537 5527 5515
5574 5584 5587 5595 5597 5600 5598 5599 5599 5598 5595 5590 5582 5581 5577 5573 5556 5543 5533 5519 5514 5503
5559 5571 5579 5582 5584 5595 5591 5584 5581 5583 5581 5578 5569 5567 5566 5557 5541 5529 5518 5504 5495 5486
5546 5556 5571 5577 5578 5581 5574 5574 5564 5567 5566 5563 5560 5552 5549 5538 5536 5524 5512 5490 5482 5475